EW4427 Weather Reports


time (UTC)temp
F
wind
direction
speed
knots
gust
knots
rain 1hr
in
rain 24hr
in
rain mn
in
humidity
%
barometer
mb
20260905173546 76 17 0.0 2.6 0.00 0.00 0.00 85 1016.1
20260905173057 76 26 0.0 4.3 0.00 0.00 0.00 85 1016.1
20260905172545 76 0 0.9 4.3 0.00 0.00 0.00 85 1016.0
20260905172045 75 355 0.9 4.3 0.00 0.00 0.00 86 1016.0
20260905171604 75 0 0.0 3.5 0.00 0.00 0.00 86 1016.0
20260905171046 75 5 0.0 3.5 0.00 0.00 0.00 87 1016.0
20260905170546 75 0 0.0 2.6 0.00 0.00 0.00 87 1016.0
20260905170100 75 0 0.0 3.5 0.00 0.00 0.00 86 1016.1
20260905165545 75 350 0.9 3.5 0.00 0.00 0.00 86 1016.3
20260905165045 75 0 0.9 5.2 0.00 0.00 0.00 86 1016.2
20260905164558 75 351 0.0 5.2 0.00 0.00 0.00 86 1016.3
20260905164048 75 55 1.7 6.1 0.00 0.00 0.00 86 1016.3
20260905163545 75 45 1.7 6.1 0.00 0.00 0.00 87 1016.4
20260905163058 75 336 1.7 4.3 0.00 0.00 0.00 87 1016.2
20260905162545 74 25 0.0 3.5 0.00 0.00 0.00 88 1016.3
20260905162046 74 5 0.9 3.5 0.00 0.00 0.00 88 1016.2
20260905161605 74 0 0.9 3.5 0.00 0.00 0.00 88 1016.2
20260905161046 74 0 0.0 2.6 0.00 0.00 0.00 88 1016.2
20260905160547 74 42 0.9 2.6 0.00 0.00 0.00 89 1016.2
20260905160100 74 0 0.0 4.3 0.00 0.00 0.00 89 1016.2
20260905155545 74 5 1.7 5.2 0.00 0.00 0.00 89 1016.2
20260905155045 73 0 0.9 6.1 0.00 0.00 0.00 89 1016.1
20260905154616 73 21 0.9 6.1 0.00 0.00 0.00 90 1016.0
20260905154045 73 0 0.0 2.6 0.00 0.00 0.00 91 1016.0
20260905153545 73 0 0.0 2.6 0.00 0.00 0.00 92 1016.1
20260905153057 73 0 0.0 0.0 0.00 0.00 0.00 92 1016.0
20260905152545 73 0 0.0 3.5 0.00 0.00 0.00 92 1016.0
20260905152046 73 0 0.0 3.5 0.00 0.00 0.00 93 1016.0
20260905151605 73 0 0.0 2.6 0.00 0.00 0.00 93 1016.0
20260905151048 72 0 0.0 4.3 0.00 0.00 0.00 93 1015.8
20260905150545 72 5 0.9 4.3 0.00 0.00 0.00 93 1015.8
20260905150059 72 0 0.0 1.7 0.00 0.00 0.00 93 1015.8
20260905145546 72 0 0.0 1.7 0.00 0.00 0.00 94 1015.7
20260905145045 72 0 0.0 3.5 0.00 0.00 0.00 94 1015.7
20260905144558 72 0 0.0 3.5 0.00 0.00 0.00 94 1015.7
20260905144047 72 26 0.0 4.3 0.00 0.00 0.00 94 1015.6
20260905143545 72 0 0.0 4.3 0.00 0.00 0.00 94 1015.6
20260905143056 72 0 0.9 5.2 0.00 0.00 0.00 95 1015.4
20260905142545 71 0 0.9 6.1 0.00 0.00 0.00 95 1015.3
20260905142045 71 11 0.9 6.1 0.00 0.00 0.00 95 1015.4
20260905141559 71 0 0.0 4.3 0.00 0.00 0.00 95 1015.4
20260905141045 71 0 0.0 4.3 0.00 0.00 0.00 95 1015.4
20260905140546 71 0 0.0 4.3 0.00 0.00 0.00 95 1015.4
20260905135547 71 32 0.9 4.3 0.00 0.00 0.00 95 1015.2
20260905135046 71 0 0.0 5.2 0.00 0.00 0.00 96 1015.3
20260905134556 71 0 0.9 5.2 0.00 0.00 0.00 96 1015.3
20260905134045 71 0 0.0 3.5 0.00 0.00 0.00 96 1015.3
20260905133546 71 0 0.0 3.5 0.00 0.00 0.00 96 1015.3
20260905133056 71 0 0.9 3.5 0.00 0.00 0.00 96 1015.2
20260905132547 71 0 0.0 3.5 0.00 0.00 0.00 96 1015.3
20260905132100 71 0 0.0 3.5 0.00 0.00 0.00 96 1015.4
20260905131609 71 0 0.0 3.5 0.00 0.00 0.00 96 1015.5
20260905131044 71 0 0.0 3.5 0.00 0.00 0.00 96 1015.8
20260905130549 70 15 0.0 3.5 0.00 0.00 0.00 96 1015.6
20260905130101 70 0 0.9 3.5 0.00 0.00 0.00 96 1015.4
20260905125545 70 0 0.0 3.5 0.00 0.00 0.00 96 1015.3
20260905125044 70 0 0.0 3.5 0.00 0.00 0.00 96 1015.1
20260905124603 70 17 0.0 7.0 0.00 0.00 0.00 96 1015.1
20260905124043 70 22 0.9 7.0 0.00 0.00 0.00 96 1014.9
20260905123545 70 0 0.0 3.5 0.00 0.00 0.00 96 1014.9
20260905123106 70 0 0.0 1.7 0.00 0.00 0.00 96 1014.7
20260905122542 70 0 0.0 2.6 0.00 0.00 0.00 96 1014.6
20260905122045 70 0 0.0 3.5 0.00 0.00 0.00 96 1014.5
20260905121603 70 32 0.0 3.5 0.00 0.00 0.00 96 1014.4
20260905121045 70 0 0.9 5.2 0.00 0.00 0.00 96 1014.4
20260905120544 70 0 1.7 7.0 0.00 0.00 0.00 96 1014.4
20260905120100 70 326 0.9 7.0 0.00 0.00 0.00 96 1014.3
20260905115545 70 0 0.0 4.3 0.00 0.01 0.00 96 1014.3
20260905115044 70 50 0.0 5.2 0.00 0.01 0.00 96 1014.3
20260905114559 70 337 1.7 5.2 0.00 0.01 0.00 96 1014.2
20260905114044 70 15 0.9 5.2 0.00 0.01 0.00 96 1014.2
20260905113545 70 22 0.0 7.0 0.00 0.01 0.00 96 1014.0
20260905113058 70 24 2.6 7.0 0.00 0.01 0.00 95 1014.0
20260905112542 70 34 1.7 7.0 0.00 0.01 0.00 95 1013.9
20260905112042 70 16 1.7 6.1 0.00 0.01 0.00 95 1013.9
20260905111609 70 31 1.7 6.1 0.00 0.01 0.00 95 1013.9
20260905111042 70 0 0.0 5.2 0.00 0.01 0.00 95 1013.8
20260905110542 70 26 0.9 5.2 0.00 0.01 0.00 95 1013.8
20260905110100 70 0 0.0 4.3 0.00 0.01 0.00 95 1013.8
20260905105545 70 9 0.0 4.3 0.00 0.01 0.00 95 1013.6
20260905105047 70 0 0.0 4.3 0.00 0.01 0.00 95 1013.7
20260905104613 70 0 0.0 4.3 0.00 0.01 0.00 95 1013.6
20260905104045 70 350 0.0 3.5 0.00 0.01 0.00 95 1013.6
20260905103544 69 5 0.0 3.5 0.00 0.01 0.00 95 1013.7
20260905103109 69 0 0.0 0.0 0.00 0.01 0.00 95 1013.6
20260905102544 69 0 0.0 0.0 0.00 0.01 0.00 95 1013.7
20260905102042 69 0 0.0 0.0 0.00 0.01 0.00 95 1013.6
20260905101604 69 0 0.0 0.0 0.00 0.01 0.00 95 1013.6
20260905101045 69 0 0.0 0.0 0.00 0.01 0.00 95 1013.4
20260905100544 69 0 0.0 0.0 0.00 0.01 0.00 94 1013.4
20260905100106 69 0 0.0 0.0 0.00 0.01 0.00 94 1013.5
20260905095545 69 0 0.0 0.0 0.00 0.01 0.00 94 1013.5
20260905095042 69 0 0.0 0.0 0.00 0.01 0.00 94 1013.5
20260905094601 69 0 0.0 0.0 0.00 0.01 0.00 94 1013.4
20260905094044 69 0 0.0 0.0 0.00 0.01 0.00 94 1013.4
20260905093542 69 0 0.0 0.0 0.00 0.01 0.00 94 1013.5
20260905093054 69 0 0.0 0.0 0.00 0.01 0.00 94 1013.5
20260905092544 70 0 0.0 0.0 0.00 0.01 0.00 94 1013.4
20260905092042 70 0 0.0 0.0 0.00 0.01 0.00 94 1013.4
20260905091633 70 0 0.0 0.0 0.00 0.01 0.00 94 1013.5
20260905091044 70 0 0.0 0.0 0.00 0.01 0.00 94 1013.5
20260905090545 70 0 0.0 0.0 0.00 0.01 0.00 94 1013.6
20260905090058 70 0 0.0 0.0 0.00 0.01 0.00 94 1013.6
20260905085545 70 0 0.0 0.0 0.00 0.01 0.00 94 1013.6
20260905085042 70 0 0.0 0.0 0.00 0.01 0.00 94 1013.5
20260905084614 70 0 0.0 0.0 0.00 0.01 0.00 94 1013.5
20260905084042 70 0 0.0 0.0 0.00 0.01 0.00 94 1013.5
20260905083543 70 0 0.0 0.0 0.00 0.01 0.00 93 1013.3
20260905083059 70 0 0.0 0.0 0.00 0.01 0.00 94 1013.3
20260905082542 70 0 0.0 0.0 0.00 0.01 0.00 93 1013.1
20260905082042 70 0 0.0 0.0 0.00 0.01 0.00 93 1013.1
20260905081602 70 0 0.0 0.0 0.00 0.01 0.00 93 1013.1
20260905081043 70 0 0.0 0.0 0.00 0.01 0.00 93 1013.2
20260905080544 70 0 0.0 0.0 0.00 0.01 0.00 93 1013.3
20260905080107 70 0 0.0 0.0 0.00 0.01 0.00 93 1013.2
20260905075544 70 0 0.0 0.0 0.00 0.01 0.00 93 1013.2
20260905075042 70 0 0.0 0.0 0.00 0.01 0.00 93 1013.3
20260905074614 71 0 0.0 0.0 0.00 0.01 0.00 93 1013.2
20260905074045 71 0 0.0 0.0 0.00 0.01 0.00 93 1013.3
20260905073544 71 0 0.0 0.0 0.00 0.01 0.00 93 1013.2
20260905073059 71 0 0.0 0.0 0.00 0.01 0.00 93 1013.2
20260905072544 71 0 0.0 0.0 0.00 0.01 0.00 93 1013.3
20260905072044 71 0 0.0 0.0 0.00 0.01 0.00 93 1013.3
20260905071607 71 0 0.0 0.0 0.00 0.01 0.00 93 1013.3
20260905071046 71 0 0.0 0.0 0.00 0.01 0.00 93 1013.4
20260905070546 71 0 0.0 0.0 0.00 0.01 0.00 93 1013.4
20260905070110 71 0 0.0 0.0 0.00 0.01 0.00 93 1013.5
20260905065547 71 0 0.0 0.0 0.00 0.01 0.00 93 1013.5
20260905065047 71 0 0.0 0.0 0.00 0.01 0.00 93 1013.5
20260905064557 71 0 0.0 0.0 0.00 0.01 0.00 93 1013.4
20260905064045 72 0 0.0 0.0 0.00 0.01 0.00 93 1013.3
20260905063547 72 0 0.0 0.0 0.00 0.01 0.00 94 1013.3
20260905063059 72 0 0.0 0.0 0.00 0.01 0.00 94 1013.2
20260905062546 72 0 0.0 0.0 0.00 0.01 0.00 94 1013.3
20260905062046 72 0 0.0 0.0 0.00 0.01 0.00 94 1013.3
20260905061613 72 0 0.0 0.0 0.00 0.01 0.00 94 1013.3
20260905061047 72 0 0.0 0.0 0.00 0.01 0.00 94 1013.3
20260905060546 72 0 0.0 0.0 0.00 0.01 0.00 94 1013.2
20260905060059 71 0 0.0 0.0 0.00 0.01 0.00 92 1013.1
20260905055547 72 0 0.0 0.0 0.00 0.01 0.00 92 1013.5
20260905055048 72 0 0.0 0.0 0.00 0.01 0.00 92 1013.6
20260905054601 72 0 0.0 0.0 0.00 0.01 0.00 92 1013.6
20260905054046 72 0 0.0 0.0 0.00 0.01 0.00 92 1013.7
20260905053547 72 0 0.0 0.0 0.00 0.01 0.00 92 1013.7
20260905053057 72 0 0.0 0.0 0.00 0.01 0.00 92 1013.7
20260905052546 72 0 0.0 0.0 0.00 0.01 0.00 92 1013.8
20260905052049 72 0 0.0 0.0 0.00 0.01 0.00 92 1013.8
20260905051556 72 0 0.0 0.0 0.00 0.01 0.00 92 1013.8
20260905051046 72 0 0.0 0.0 0.00 0.01 0.00 92 1013.9
20260905050546 72 0 0.0 0.0 0.00 0.01 0.00 92 1013.9
20260905050104 72 0 0.0 0.0 0.00 0.01 0.00 92 1014.0
20260905045546 72 0 0.0 0.0 0.00 0.01 0.01 92 1014.0
20260905045049 72 0 0.0 0.0 0.00 0.01 0.01 92 1014.0
20260905044555 72 0 0.0 0.0 0.00 0.01 0.01 92 1014.1
20260905044046 72 0 0.0 0.0 0.00 0.01 0.01 92 1014.0
20260905043545 72 0 0.0 0.0 0.00 0.01 0.01 91 1014.1
20260905043102 72 0 0.0 0.0 0.00 0.01 0.01 91 1014.0
20260905042544 72 0 0.0 0.0 0.00 0.01 0.01 91 1013.9
20260905042045 72 0 0.0 0.0 0.00 0.01 0.01 91 1013.8
20260905041606 72 0 0.0 0.0 0.00 0.01 0.01 91 1013.7
20260905041046 73 0 0.0 0.0 0.00 0.01 0.01 91 1013.8
20260905040544 73 0 0.0 0.0 0.00 0.01 0.01 91 1013.9
20260905040100 73 0 0.0 0.0 0.00 0.01 0.01 91 1013.7
20260905035542 73 0 0.0 0.0 0.00 0.01 0.01 91 1013.4
20260905035042 73 0 0.0 0.0 0.00 0.01 0.01 91 1013.5
20260905034601 73 0 0.0 0.0 0.00 0.01 0.01 90 1013.3
20260905034041 73 0 0.0 0.0 0.00 0.01 0.01 90 1013.4
20260905033544 73 0 0.0 0.0 0.00 0.01 0.01 90 1013.5
20260905033101 73 0 0.0 0.0 0.00 0.01 0.01 90 1013.6
20260905032545 73 0 0.0 0.0 0.00 0.01 0.01 89 1013.6
20260905032043 73 0 0.0 0.0 0.00 0.01 0.01 89 1013.8
20260905031558 73 0 0.0 0.0 0.00 0.01 0.01 89 1014.0
20260905031044 73 0 0.0 0.0 0.00 0.01 0.01 89 1014.0
20260905030544 73 0 0.0 0.0 0.00 0.01 0.01 89 1014.1
20260905030106 73 0 0.0 0.0 0.00 0.01 0.01 89 1014.1
20260905025542 73 0 0.0 0.0 0.00 0.01 0.01 89 1013.9
20260905025047 74 0 0.0 0.0 0.00 0.01 0.01 89 1014.0
20260905024605 74 0 0.0 0.0 0.00 0.01 0.01 89 1013.9
20260905024042 74 0 0.0 0.0 0.00 0.01 0.01 88 1013.9
20260905023543 74 0 0.0 0.0 0.00 0.01 0.01 88 1014.0
20260905023107 74 0 0.0 0.0 0.00 0.01 0.01 88 1014.0
20260905022541 74 0 0.0 0.0 0.00 0.01 0.01 88 1014.0
20260905022042 74 0 0.0 0.0 0.00 0.01 0.01 88 1014.0
20260905021606 74 0 0.0 0.0 0.00 0.01 0.01 88 1014.0
20260905021046 75 0 0.0 0.0 0.00 0.01 0.01 88 1014.0
20260905020544 75 0 0.0 0.0 0.00 0.01 0.01 87 1013.8
20260905015543 75 0 0.0 0.0 0.00 0.01 0.01 87 1014.0
20260905015043 75 0 0.0 0.0 0.00 0.01 0.01 87 1014.0
20260905014603 75 0 0.0 0.0 0.00 0.01 0.01 86 1013.9
20260905014043 75 0 0.0 0.0 0.00 0.01 0.01 86 1014.0
20260905013545 76 0 0.0 0.0 0.00 0.01 0.01 86 1014.1
20260905013102 76 0 0.0 0.0 0.00 0.01 0.01 86 1014.1
20260905012545 76 0 0.0 0.9 0.00 0.01 0.01 85 1014.0
20260905012044 76 0 0.0 4.3 0.00 0.01 0.01 85 1013.9
20260905011608 76 5 0.0 4.3 0.00 0.01 0.01 85 1014.0
20260905011044 76 0 0.9 4.3 0.00 0.01 0.01 85 1013.8
20260905010546 77 0 0.0 2.6 0.00 0.01 0.01 84 1013.7
20260905010111 77 0 0.0 3.5 0.00 0.01 0.01 84 1013.4
20260905005543 77 0 0.0 3.5 0.00 0.01 0.01 84 1013.3
20260905005043 77 355 0.0 3.5 0.00 0.01 0.01 83 1013.3
20260905004603 77 29 0.0 3.5 0.00 0.01 0.01 83 1013.1
20260905004045 78 14 0.9 3.5 0.00 0.01 0.01 83 1012.9
20260905003550 78 38 0.9 2.6 0.00 0.01 0.01 82 1012.9
20260905003103 78 0 0.0 2.6 0.00 0.01 0.01 82 1012.7
20260905002545 79 0 0.0 4.3 0.00 0.01 0.01 82 1012.7
20260905002047 79 0 0.9 4.3 0.00 0.01 0.01 81 1012.7
20260905001602 79 19 0.9 4.3 0.00 0.01 0.01 80 1012.6
20260905001047 80 0 0.9 3.5 0.00 0.01 0.01 80 1012.7
20260905000544 80 0 0.9 3.5 0.00 0.01 0.01 79 1012.7
20260904235548 81 0 0.0 2.6 0.00 0.01 0.01 79 1012.7
20260904235046 82 0 0.0 3.5 0.00 0.01 0.01 80 1012.7
20260904234600 82 0 0.0 3.5 0.00 0.01 0.01 80 1012.7
20260904234044 82 0 0.0 3.5 0.00 0.01 0.01 81 1012.7
20260904233546 83 0 0.0 1.7 0.00 0.01 0.01 83 1012.5
20260904233101 83 0 0.0 0.0 0.00 0.01 0.01 85 1012.4
20260904232548 83 0 0.0 0.9 0.00 0.01 0.01 84 1012.1
20260904232048 83 0 0.0 0.9 0.00 0.01 0.01 84 1012.0
20260904231602 84 0 0.0 0.0 0.00 0.01 0.01 84 1012.0
20260904231046 84 0 0.0 0.0 0.00 0.01 0.01 83 1012.0
20260904230547 84 0 0.0 0.0 0.00 0.01 0.01 82 1012.2
20260904230110 84 0 0.0 0.0 0.00 0.01 0.01 82 1012.2
20260904225546 84 0 0.0 0.0 0.00 0.01 0.01 82 1012.2
20260904225047 84 0 0.0 0.0 0.00 0.01 0.01 82 1012.1
20260904224610 84 0 0.0 0.0 0.00 0.01 0.01 81 1012.0
20260904224050 85 0 0.0 0.0 0.00 0.01 0.01 80 1012.2
20260904223547 85 0 0.0 0.0 0.00 0.01 0.01 79 1012.1
20260904223102 85 0 0.0 0.0 0.00 0.01 0.01 79 1012.1
20260904222547 85 0 0.0 0.0 0.00 0.01 0.01 78 1012.2
20260904222048 85 0 0.0 0.0 0.00 0.01 0.01 78 1012.3
20260904221604 85 0 0.0 0.0 0.00 0.01 0.01 78 1012.3
20260904221047 85 0 0.0 0.0 0.00 0.01 0.01 77 1012.3
20260904220546 85 0 0.0 0.9 0.00 0.01 0.01 77 1012.3
20260904220107 85 0 0.0 1.7 0.00 0.01 0.01 78 1012.3
20260904215546 85 0 0.0 1.7 0.00 0.01 0.01 78 1012.3
20260904215046 85 0 0.0 1.7 0.00 0.01 0.01 78 1012.1
20260904214603 85 0 0.0 1.7 0.00 0.01 0.01 77 1012.4
20260904214046 85 178 0.0 3.5 0.00 0.01 0.01 78 1012.1
20260904213546 85 197 0.9 4.3 0.00 0.01 0.01 77 1012.1
20260904213107 85 177 0.9 4.3 0.00 0.01 0.01 77 1012.1
20260904212546 85 186 1.7 4.3 0.00 0.01 0.01 78 1012.0
20260904212047 85 190 0.9 4.3 0.00 0.01 0.01 77 1012.1
20260904211603 85 189 0.9 5.2 0.00 0.01 0.01 77 1012.0
20260904211047 85 186 0.9 6.1 0.00 0.01 0.01 77 1011.9
20260904210546 85 194 2.6 6.1 0.00 0.01 0.01 77 1011.8
20260904210108 85 177 0.9 5.2 0.00 0.01 0.01 77 1011.8
20260904205546 85 178 2.6 5.2 0.00 0.01 0.01 77 1011.7
20260904205046 85 177 1.7 5.2 0.00 0.01 0.01 76 1011.9
20260904204558 85 197 1.7 4.3 0.00 0.01 0.01 76 1011.8
20260904204046 85 198 0.9 7.8 0.00 0.01 0.01 77 1012.0
20260904203546 85 190 2.6 7.8 0.00 0.01 0.01 77 1011.9
20260904203101 85 183 5.2 7.8 0.00 0.01 0.01 77 1011.9
20260904202547 85 200 2.6 6.1 0.00 0.01 0.01 76 1012.0
20260904202045 85 163 3.5 6.1 0.00 0.01 0.01 77 1012.1
20260904201558 84 211 2.6 7.0 0.00 0.01 0.01 78 1012.2
20260904201047 84 185 2.6 7.0 0.00 0.01 0.01 80 1012.3
20260904200545 83 190 3.5 7.0 0.00 0.01 0.01 80 1012.3
20260904200058 83 182 1.7 6.1 0.00 0.01 0.01 80 1012.3
20260904195546 83 213 2.6 6.1 0.00 0.01 0.01 80 1012.4
20260904195046 82 188 3.5 7.0 0.00 0.01 0.01 80 1012.5
20260904194555 82 178 2.6 7.0 0.00 0.01 0.01 81 1012.7
20260904194047 81 185 2.6 5.2 0.00 0.01 0.01 82 1012.7
20260904193546 81 185 2.6 5.2 0.00 0.01 0.01 82 1012.8
20260904193105 80 188 0.9 4.3 0.00 0.01 0.01 84 1012.9
20260904192546 80 189 0.0 7.0 0.00 0.01 0.01 83 1013.2
20260904192045 80 189 1.7 7.8 0.00 0.01 0.01 83 1013.2
20260904191605 80 186 3.5 7.8 0.00 0.01 0.01 82 1013.1
20260904191046 80 180 3.5 7.0 0.00 0.01 0.01 83 1013.1
20260904190547 79 187 2.6 7.0 0.00 0.01 0.01 82 1013.1
20260904190057 79 195 2.6 11.3 0.00 0.01 0.01 81 1013.4
20260904185547 79 195 3.5 11.3 0.00 0.01 0.01 82 1013.3
20260904185050 79 191 7.0 11.3 0.00 0.01 0.01 82 1012.8
20260904184606 79 193 6.1 11.3 0.00 0.01 0.01 83 1013.0
20260904184046 79 188 6.1 11.3 0.00 0.01 0.01 83 1013.1
20260904183546 79 194 5.2 9.6 0.00 0.01 0.01 86 1013.3
20260904183100 78 176 5.2 9.6 0.00 0.01 0.01 86 1013.2
20260904182542 77 199 4.3 10.4 0.00 0.01 0.01 87 1013.5
20260904182042 77 184 4.3 10.4 0.00 0.01 0.01 89 1013.7
20260904181557 76 180 4.3 8.7 0.00 0.01 0.01 89 1013.8
20260904181042 75 192 3.5 7.0 0.00 0.01 0.01 91 1013.8
20260904180542 75 192 3.5 7.8 0.00 0.01 0.01 92 1013.8
20260904180054 74 180 2.6 7.8 0.00 0.01 0.01 92 1013.8
20260904175541 74 205 2.6 7.0 0.00 0.01 0.01 93 1014.0
20260904175044 73 186 3.5 7.8 0.00 0.01 0.01 93 1014.0
20260904174604 73 195 2.6 7.8 0.00 0.01 0.01 93 1013.9
20260904174046 73 182 2.6 6.1 0.00 0.01 0.01 93 1013.8